NIMBUS 2 DEB, 25612

Orbit data source: Space-Track

NIMBUS 2 DEB, 25612 is space debris in SSO originally from a launch on Sun, 15 May 1966 UTC launched from the Air Force Western Test Range (AFWTR). Debris objects in space refer to the collection of defunct objects orbiting the Earth. Examples of debris include non-operational satellites, rocket bodies, and fragments generated from explosions, collisions, or faulty payload assembly.

Loading next visibility...
Identifier
25612, 1966-040E
Orbit
SSO
Country
Flag of USUS
Related business
Manufacturer
Unknown
Mission
Spacecraft
Bus & Motor
Unknown
Mass
Unknown
Launch date (UTC)
1966-05-15 (60 years ago)
Launch vehicle
Unknown
Launch site
Air Force Western Test Range (AFWTR)
Object type
Payload
Rocket body
Debris
Shape & HBR
Unknown shape, 0.1 m
Radar Cross Section
Small (<0.1 m²)

Expand to show TLE details & history
Last TLE update: 3 days ago

TLE from 3 days ago
0 NIMBUS 2 DEB
1 25612U 66040E   26171.22949101  .00003032  00000-0  30163-2 0  9990
2 25612 100.4917  81.8874 0032088 120.1378  33.6354 13.78854365435993
Epoch: 2026-06-20T05:30Z
TLE epoch observation values (Epoch: 2026-06-20T05:30:28.023Z)
Latitude
25.58848°
Longitude
-84.1153°
Altitude
951.34 km
Speed
7.388 km/s
True Right ascension
17h 47m 47s
True Declination
25° 27' 30"
Sunlit
Object was in full shadow at epoch
Visualization orbit readout
Latitude
Unknown
Longitude
Unknown
Altitude
Unknown
Speed
Unknown
Apparent Right ascension
Unknown
Apparent Declination
Unknown
Sunlit
N/A
Visualization observer readout
Local Sidereal Time
07:09:44
Azimuth
Unknown
Elevation
Unknown
Doppler factor
Unknown
Orbital elements
Apogee altitude
988.822 km
Perigee altitude
941.695 km
Semi-major axis
7,343.396 km
Eccentricity
0.00321
Inclination
100.4917°
RAAN
81.8874°
Arg. of periapsis
120.1378°
True anomaly
33.83975°
Mean anomaly
33.6354°
Eccentric anomaly
33.73751°
Mean motion
3.44904 °/min
Orbital period
104.38 mins
BSTAR
0.0030163
Loading maneuver chart data...
Computing Atmospheric mass density...
Loading historical data...
Loading historical data...
Loading historical data...
Loading historical data...
Loading historical data...
Loading historical data...
Loading historical data...

Documentation

Showing up to 5 results
|